Location: Boiro
(42.6475°N, 8.8834°W)
Time: 21:48:38
(UTC+01:00)

Vanguard 1 - Pass Details

Date: 29 November 2021
Orbit: 652 x 3830 km, 34.2° (Epoch: 19 January)

Event Time Altitude Azimuth Distance (km) Brightness Sun altitude
Rises 06:53:16 0° 274° (W) 7,806 - -19.8°
Reaches altitude 10° 06:59:09 10° 271° (W) 6,525 - -18.8°
Exits shadow 07:03:35 19° 267° (W) 5,516 13.3 -18.0°
Maximum altitude 07:17:35 53° 202° (SSW) 2,833 12.3 -15.5°
Drops below altitude 10° 07:28:03 10° 129° (SE) 3,872 14.2 -13.7°
Sets 07:30:36 0° 124° (SE) 4,542 15.1 -13.2°
